{"data":{"norad_id":46159,"intl_designator":"2020-057AU","name":"STARLINK-1595","alt_names":[],"object_type":"PAYLOAD","status":"ACTIVE","operator":null,"country":"US","launch_date":"2020-08-18","launch_site_code":"AFETR","launch_vehicle":null,"mission":null,"orbit_class":"UNKNOWN","rcs_meters":null,"size_class":null,"mass_kg":null,"dimensions":null,"purposes":["comms"],"wikipedia_slug":null,"has_3d_model":false,"image_url":null,"decayed_at":null,"tle_current":{"epoch":"2026-09-04T13:45:13.347360Z","epoch_age_seconds":1397982,"freshness":"OLD","line1":"1 46159U 20057AU  26247.57307115  .13201629  12423-4  29030-3 0  9996","line2":"2 46159  53.0193 126.2231 0010998 237.7536 122.2448 16.45729355335781","mean_motion":16.45729355,"eccentricity":0.0010998,"inclination_deg":53.0193,"raan_deg":126.2231,"arg_perigee_deg":237.7536,"mean_anomaly_deg":122.2448,"bstar":0.0002903,"rev_number":33578,"period_min":87.499198797484,"perigee_km":143.42555258357,"apogee_km":157.7861753872,"semimajor_km":6528.7428639854,"source":"CELESTRAK","updated_at":"2026-09-06T09:00:33.639778Z"}}}